STARLINK-36704

Last updated on Tue Mar 10 2026 00:02:05 GMT+0000 (Coordinated Universal Time)

1 67697U 26025E 26068.27794101 .00139086 00000+0 91600-3 0 9998 2 67697 97.2834 179.8116 0002239 96.0415 264.1106 15.75245543 5875
UTC large
Height (km)
Speed (km/s)
/
Latitude / Longitude
Inclination (degrees)
Orbital Period (minutes)
Azimuth
Elevation
Range (km)
Doppler Factor

Next 0 passes for location: London (51.5072 / 0.1276)

Sorry there are no passes over London.